sat.trackr.live / text

‹ back to catalog

STARLINK-34360

NORAD 64304 · 2025-123P

PAYLOAD ACTIVE UNKNOWN

§ Identity

Operator
Country
US
Launch date
2025-06-08
Launch site
AFWTR
Launch vehicle
Mass (kg)
RCS (m²)

Purposes: comms

External: N2YO · Heavens-Above · Gunter

§ Orbital elements

Epoch: 2026-09-20T16:45:06.319584Z

Period
94.14 min
Inclination
70.0012°
Eccentricity
0.0003470
Mean motion
15.29577632 rev/d
Perigee alt
474.7 km
Apogee alt
479.5 km
Semi-major
6,855.2 km
B*
4.3962e-4
RAAN
60.5874°
Arg perigee
266.8050°
Mean anomaly
93.2728°
Rev number
7,088

§ Raw data

STARLINK-343601 64304U 25123P   26263.69798981  .00012530  00000+0  43962-3 0  99932 64304  70.0012  60.5874 0003470 266.8050  93.2728 15.29577632 70881

JSON: /api/v1/satellites/64304 · /tle

For live sub-satellite position, see the globe view (requires WebGL).

§ Visibility from observer

Set your observer location to see the next 7 days of passes ≥ 10°. The values pass through the URL so the page stays shareable.

No JS? Fill the form by hand. The geolocation button needs JavaScript.